Track STARLINK-2106 now! 10-day predictions STARLINK-2106 is classified as:
1 47386U 21005AP 24325.49180732 .00034118 00000-0 22950-2 0 9993 2 47386 53.0527 0.3732 0000956 102.8404 257.2692 15.06454059212610